GW1702 Weather Reports


time (UTC)temp
F
wind
direction
speed
knots
gust
knots
rain 1hr
in
rain 24hr
in
rain mn
in
humidity
%
barometer
mb
20260506062024 61 330 3.5 6.1 0.00 0.00 0.00 80 1010.8
20260506061024 61 323 1.7 5.2 0.00 0.00 0.00 80 1010.8
20260506051023 63 7 3.5 7.8 0.00 0.00 0.00 79 1010.7
20260506045024 64 333 2.6 7.0 0.00 0.00 0.00 80 1010.7
20260506044043 64 349 3.5 7.8 0.00 0.00 0.00 79 1010.6
20260506043024 65 356 2.6 6.1 0.00 0.00 0.00 80 1010.5
20260506042024 65 345 2.6 7.8 0.00 0.00 0.00 80 1010.5
20260506041024 65 322 3.5 7.0 0.00 0.00 0.00 80 1010.1
20260506040024 66 333 3.5 11.3 0.00 0.00 0.00 79 1009.9
20260506035024 67 312 2.6 6.1 0.00 0.00 0.00 78 1009.9
20260506034025 67 337 3.5 7.8 0.00 0.00 0.00 78 1009.7
20260506033043 69 347 3.5 8.7 0.00 0.00 0.00 78 1009.5
20260506032023 69 321 2.6 6.1 0.00 0.00 0.00 77 1009.6
20260506031043 70 317 2.6 7.0 0.00 0.00 0.00 77 1009.3
20260506030026 70 335 3.5 7.0 0.00 0.00 0.00 76 1009.3
20260506025024 71 346 2.6 5.2 0.00 0.00 0.00 77 1009.0
20260506024024 71 329 2.6 7.0 0.00 0.00 0.00 76 1008.5
20260506023024 72 350 3.5 8.7 0.00 0.00 0.00 75 1008.2
20260506022024 73 341 2.6 6.1 0.00 0.00 0.00 73 1007.9
20260506021024 73 311 1.7 3.5 0.00 0.00 0.00 73 1007.6
20260506020044 73 309 2.6 5.2 0.00 0.00 0.00 72 1007.4
20260506015025 74 320 2.6 7.0 0.00 0.00 0.00 71 1007.4
20260506014045 74 315 1.7 5.2 0.00 0.00 0.00 71 1007.5
20260506013025 74 344 2.6 6.1 0.00 0.00 0.00 71 1007.2
20260506012025 75 309 2.6 5.2 0.00 0.00 0.00 70 1007.4
20260506011025 75 337 2.6 6.1 0.00 0.00 0.00 70 1007.0
20260506010024 76 356 2.6 7.0 0.00 0.00 0.00 70 1006.8
20260506005024 77 359 3.5 7.8 0.00 0.00 0.00 69 1006.4
20260506004024 78 324 2.6 7.0 0.00 0.00 0.00 68 1006.5
20260506003044 79 318 2.6 8.7 0.00 0.00 0.00 66 1006.3
20260506002024 80 331 2.6 7.8 0.00 0.00 0.00 65 1006.5
20260506001025 80 314 1.7 7.0 0.00 0.00 0.00 64 1006.5
20260506000025 81 319 2.6 5.2 0.00 0.00 0.00 64 1005.8
20260505235045 82 328 3.5 6.1 0.00 0.00 0.00 63 1005.6
20260505234045 85 313 2.6 9.6 0.00 0.00 0.00 58 1005.5
20260505233025 86 313 2.6 5.2 0.00 0.00 0.00 54 1005.6
20260505232025 87 294 1.7 3.5 0.00 0.00 0.00 52 1005.4
20260505231024 87 280 1.7 6.1 0.00 0.00 0.00 51 1005.1
20260505230024 88 239 3.5 9.6 0.00 0.00 0.00 53 1004.9
20260505225024 89 203 3.5 6.1 0.00 0.00 0.00 56 1004.8
20260505224024 89 209 3.5 7.8 0.00 0.00 0.00 56 1004.8
20260505223024 89 231 2.6 7.0 0.00 0.00 0.00 58 1004.6
20260505222024 89 211 2.6 6.1 0.00 0.00 0.00 58 1004.4
20260505221024 88 207 4.3 9.6 0.00 0.00 0.00 58 1004.6
20260505220025 89 203 4.3 9.6 0.00 0.00 0.00 59 1004.6
20260505215025 90 214 3.5 9.6 0.00 0.00 0.00 56 1004.7
20260505214025 90 200 3.5 9.6 0.00 0.00 0.00 56 1004.9
20260505213025 91 226 2.6 6.1 0.00 0.00 0.00 56 1004.9
20260505212023 90 223 4.3 11.3 0.00 0.00 0.00 57 1005.0
20260505211024 89 207 5.2 9.6 0.00 0.00 0.00 59 1005.0
20260505210024 89 208 5.2 11.3 0.00 0.00 0.00 60 1005.1
20260505205024 89 220 4.3 11.3 0.00 0.00 0.00 62 1005.3
20260505204024 88 210 5.2 13.9 0.00 0.00 0.00 62 1005.4
20260505203024 88 202 5.2 12.2 0.00 0.00 0.00 63 1005.5
20260505202024 87 222 4.3 13.9 0.00 0.00 0.00 64 1005.6
20260505201024 87 206 6.1 13.0 0.00 0.00 0.00 63 1005.5
20260505200045 87 203 6.1 13.0 0.00 0.00 0.00 65 1005.8
20260505195045 86 207 5.2 13.0 0.00 0.00 0.00 65 1005.8
20260505194025 86 201 7.8 15.6 0.00 0.00 0.00 65 1005.9
20260505193044 86 218 4.3 11.3 0.00 0.00 0.00 65 1005.9
20260505192024 85 214 7.8 14.8 0.00 0.00 0.00 68 1005.8
20260505191024 84 217 5.2 13.9 0.00 0.00 0.00 68 1005.9
20260505190024 84 209 5.2 11.3 0.00 0.00 0.00 70 1006.0
20260505185024 84 213 6.1 13.0 0.00 0.00 0.00 69 1006.1
20260505184024 83 204 6.1 13.9 0.00 0.00 0.00 70 1006.0
20260505183024 83 210 5.2 13.9 0.00 0.00 0.00 71 1006.2
20260505182025 82 205 7.8 16.5 0.00 0.00 0.00 72 1006.2
20260505181105 82 203 7.8 19.1 0.00 0.00 0.00 72 1006.3
20260505180025 82 210 7.8 19.1 0.00 0.00 0.00 73 1006.3
20260505175025 81 197 7.8 18.2 0.00 0.00 0.00 73 1006.1
20260505174025 81 202 5.2 16.5 0.00 0.00 0.00 73 1006.4
20260505173023 81 206 7.8 16.5 0.00 0.00 0.00 74 1006.3
20260505172023 81 218 5.2 13.0 0.00 0.00 0.00 73 1006.3
20260505171044 81 201 5.2 9.6 0.00 0.00 0.00 74 1006.3
20260505170024 80 214 6.1 13.0 0.00 0.00 0.00 75 1006.6
20260505165024 79 205 6.1 15.6 0.00 0.00 0.00 76 1006.4
20260505164104 79 207 6.1 11.3 0.00 0.00 0.00 76 1006.3
20260505163024 79 205 7.8 15.6 0.00 0.00 0.00 76 1006.3
20260505162024 78 205 7.8 18.2 0.00 0.00 0.00 77 1006.4
20260505161025 79 194 5.2 12.2 0.00 0.00 0.00 77 1006.3
20260505153025 77 203 7.0 19.1 0.00 0.00 0.00 79 1006.1
20260505152023 77 196 8.7 20.0 0.00 0.00 0.00 80 1006.1
20260505151044 76 215 7.8 19.1 0.00 0.00 0.00 80 1006.3
20260505125024 72 201 7.0 13.9 0.00 0.00 0.00 87 1005.6
20260505124024 72 209 6.1 13.9 0.00 0.00 0.00 87 1005.7
20260505123024 72 198 6.1 13.9 0.00 0.00 0.00 87 1005.4
20260505122024 72 207 5.2 12.2 0.00 0.00 0.00 87 1005.3
20260505121024 72 203 6.1 15.6 0.00 0.00 0.00 87 1005.3
20260505120025 72 206 7.0 13.9 0.00 0.00 0.00 87 1005.3
20260505115023 72 199 7.0 13.0 0.00 0.00 0.00 87 1005.2
20260505114023 72 204 7.0 13.9 0.00 0.00 0.00 87 1005.2
20260505113023 72 206 5.2 13.9 0.00 0.00 0.00 87 1004.9
20260505112023 72 202 6.1 13.0 0.00 0.00 0.00 87 1005.0
20260505111044 72 201 6.1 13.9 0.00 0.00 0.00 87 1005.1
20260505102025 72 207 4.3 11.3 0.00 0.00 0.00 87 1005.2
20260505101045 72 195 6.1 13.9 0.00 0.00 0.00 86 1005.2
20260505100023 72 208 6.1 13.0 0.00 0.00 0.00 87 1005.4
20260505095023 72 211 4.3 11.3 0.00 0.00 0.00 87 1005.3
20260505094025 72 217 5.2 11.3 0.00 0.00 0.00 87 1005.3
20260505093045 72 208 5.2 11.3 0.00 0.00 0.00 87 1005.5
20260505092025 71 197 6.1 15.6 0.00 0.00 0.00 87 1005.6
20260505091025 71 214 6.1 12.2 0.00 0.00 0.00 87 1005.8
20260505090024 71 196 6.1 18.2 0.00 0.00 0.00 87 1005.5
20260505085024 71 204 5.2 12.2 0.00 0.00 0.00 87 1005.6
20260505084024 71 202 7.0 15.6 0.00 0.00 0.00 87 1005.6
20260505083024 71 204 5.2 12.2 0.00 0.00 0.00 87 1005.6
20260505082024 71 211 6.1 9.6 0.00 0.00 0.00 87 1005.7
20260505081024 71 198 4.3 12.2 0.00 0.00 0.00 86 1005.7
20260505080025 71 195 5.2 9.6 0.00 0.00 0.00 86 1005.8
20260505075105 72 206 9.6 18.2 0.00 0.00 0.00 85 1005.9
20260505074043 72 198 7.0 13.9 0.00 0.00 0.00 85 1006.3
20260505073043 72 198 7.0 13.0 0.00 0.00 0.00 84 1006.4
20260505072043 72 197 4.3 13.0 0.00 0.00 0.00 83 1006.6
20260505071023 73 208 7.0 14.8 0.00 0.00 0.00 83 1006.7